Terminal Aerodrome Forecast
Issued by NWS Louisville, KY

Home | Current Version | Previous Version | Text Only | Print | Product List | Glossary On
Versions: 1 2 3 4 5 6 7 8 9 10 11 12
000
FTUS43 KLMK 020500
TAFBWG
TAF
KBWG 020530Z 0206/0306 00000KT P6SM FEW150
      TEMPO 0209/0212 4SM BR
     FM021400 36006KT P6SM SCT050=

USA.gov is the U.S. government's official web portal to all federal, state and local government web resources and services.